Year,Month,Day,Hour,Minute,Value (Times are PST for temperature in C)
2010,06,28,00,00,11.20
2010,06,28,00,01,11.20
2010,06,28,00,02,11.20
2010,06,28,00,03,11.20
2010,06,28,00,04,11.20
2010,06,28,00,05,11.20
2010,06,28,00,06,11.20
2010,06,28,00,07,11.20
2010,06,28,00,08,11.20
2010,06,28,00,09,11.30
2010,06,28,00,10,11.30
2010,06,28,00,11,11.30
2010,06,28,00,12,11.30
2010,06,28,00,13,11.30
2010,06,28,00,14,11.30
2010,06,28,00,15,11.30
2010,06,28,00,16,11.30
2010,06,28,00,17,11.20
2010,06,28,00,18,11.20
2010,06,28,00,19,11.20
2010,06,28,00,20,11.20
2010,06,28,00,21,11.20
2010,06,28,00,22,11.10
2010,06,28,00,23,11.10
2010,06,28,00,24,11.10
2010,06,28,00,25,11.00
2010,06,28,00,26,11.00
2010,06,28,00,27,10.90
2010,06,28,00,28,10.90
2010,06,28,00,29,10.80
2010,06,28,00,30,10.80
2010,06,28,00,31,10.80
2010,06,28,00,32,10.70
2010,06,28,00,33,10.70
2010,06,28,00,34,10.70
2010,06,28,00,35,10.60
2010,06,28,00,36,10.60
2010,06,28,00,37,10.60
2010,06,28,00,38,10.60
2010,06,28,00,39,10.60
2010,06,28,00,40,10.60
2010,06,28,00,41,10.60
2010,06,28,00,42,10.60
2010,06,28,00,43,10.60
2010,06,28,00,44,10.60
2010,06,28,00,45,10.50
2010,06,28,00,46,10.50
2010,06,28,00,47,10.50
2010,06,28,00,48,10.50
2010,06,28,00,49,10.50
2010,06,28,00,50,10.40
2010,06,28,00,51,10.40
2010,06,28,00,52,10.40
2010,06,28,00,53,10.40
2010,06,28,00,54,10.40
2010,06,28,00,55,10.30
2010,06,28,00,56,10.30
2010,06,28,00,57,10.30
2010,06,28,00,58,10.30
2010,06,28,00,59,10.30
2010,06,28,01,00,10.20
2010,06,28,01,01,10.20
2010,06,28,01,02,10.20
2010,06,28,01,03,10.20
2010,06,28,01,04,10.20
2010,06,28,01,05,10.20
2010,06,28,01,06,10.20
2010,06,28,01,07,10.20
2010,06,28,01,08,10.20
2010,06,28,01,09,10.20
2010,06,28,01,10,10.30
2010,06,28,01,11,10.30
2010,06,28,01,12,10.30
2010,06,28,01,13,10.30
2010,06,28,01,14,10.30
2010,06,28,01,15,10.30
2010,06,28,01,16,10.30
2010,06,28,01,17,10.30
2010,06,28,01,18,10.40
2010,06,28,01,19,10.40
2010,06,28,01,20,10.40
2010,06,28,01,21,10.40
2010,06,28,01,22,10.40
2010,06,28,01,23,10.40
2010,06,28,01,24,10.40
2010,06,28,01,25,10.40
2010,06,28,01,26,10.40
2010,06,28,01,27,10.40
2010,06,28,01,28,10.40
2010,06,28,01,29,10.40
2010,06,28,01,30,10.50
2010,06,28,01,31,10.50
2010,06,28,01,32,10.50
2010,06,28,01,33,10.50
2010,06,28,01,34,10.50
2010,06,28,01,35,10.50
2010,06,28,01,36,10.50
2010,06,28,01,37,10.50
2010,06,28,01,38,10.50
2010,06,28,01,39,10.50
2010,06,28,01,40,10.50
2010,06,28,01,41,10.50
2010,06,28,01,42,10.50
2010,06,28,01,43,10.40
2010,06,28,01,44,10.40
2010,06,28,01,45,10.40
2010,06,28,01,46,10.30
2010,06,28,01,47,10.30
2010,06,28,01,48,10.30
2010,06,28,01,49,10.20
2010,06,28,01,50,10.20
2010,06,28,01,51,10.20
2010,06,28,01,52,10.20
2010,06,28,01,53,10.10
2010,06,28,01,54,10.10
2010,06,28,01,55,10.10
2010,06,28,01,56,10.10
2010,06,28,01,57,10.10
2010,06,28,01,58,10.00
2010,06,28,01,59,10.00
2010,06,28,02,00,10.00
2010,06,28,02,01,10.00
2010,06,28,02,02,9.90
2010,06,28,02,03,9.90
2010,06,28,02,04,9.90
2010,06,28,02,05,9.90
2010,06,28,02,06,9.80
2010,06,28,02,07,9.80
2010,06,28,02,08,9.80
2010,06,28,02,09,9.80
2010,06,28,02,10,9.70
2010,06,28,02,11,9.70
2010,06,28,02,12,9.70
2010,06,28,02,13,9.70
2010,06,28,02,14,9.70
2010,06,28,02,15,9.70
2010,06,28,02,16,9.70
2010,06,28,02,17,9.70
2010,06,28,02,18,9.70
2010,06,28,02,19,9.70
2010,06,28,02,20,9.70
2010,06,28,02,21,9.70
2010,06,28,02,22,9.70
2010,06,28,02,23,9.70
2010,06,28,02,24,9.70
2010,06,28,02,25,9.70
2010,06,28,02,26,9.70
2010,06,28,02,27,9.70
2010,06,28,02,28,9.70
2010,06,28,02,29,9.70
2010,06,28,02,30,9.70
2010,06,28,02,31,9.60
2010,06,28,02,32,9.60
2010,06,28,02,33,9.60
2010,06,28,02,34,9.60
2010,06,28,02,35,9.60
2010,06,28,02,36,9.50
2010,06,28,02,37,9.50
2010,06,28,02,38,9.50
2010,06,28,02,39,9.50
2010,06,28,02,40,9.50
2010,06,28,02,41,9.50
2010,06,28,02,42,9.50
2010,06,28,02,43,9.50
2010,06,28,02,44,9.50
2010,06,28,02,45,9.50
2010,06,28,02,46,9.60
2010,06,28,02,47,9.60
2010,06,28,02,48,9.60
2010,06,28,02,49,9.60
2010,06,28,02,50,9.60
2010,06,28,02,51,9.60
2010,06,28,02,52,9.60
2010,06,28,02,53,9.60
2010,06,28,02,54,9.60
2010,06,28,02,55,9.60
2010,06,28,02,56,9.60
2010,06,28,02,57,9.60
2010,06,28,02,58,9.60
2010,06,28,02,59,9.60
2010,06,28,03,00,9.60
2010,06,28,03,01,9.60
2010,06,28,03,02,9.60
2010,06,28,03,03,9.60
2010,06,28,03,04,9.60
2010,06,28,03,05,9.60
2010,06,28,03,06,9.70
2010,06,28,03,07,9.70
2010,06,28,03,08,9.70
2010,06,28,03,09,9.70
2010,06,28,03,10,9.70
2010,06,28,03,11,9.70
2010,06,28,03,12,9.80
2010,06,28,03,13,9.80
2010,06,28,03,14,9.80
2010,06,28,03,15,9.90
2010,06,28,03,16,9.90
2010,06,28,03,17,9.90
2010,06,28,03,18,9.90
2010,06,28,03,19,10.00
2010,06,28,03,20,10.00
2010,06,28,03,21,10.00
2010,06,28,03,22,10.10
2010,06,28,03,23,10.10
2010,06,28,03,24,10.10
2010,06,28,03,25,10.10
2010,06,28,03,26,10.10
2010,06,28,03,27,10.10
2010,06,28,03,28,10.20
2010,06,28,03,29,10.20
2010,06,28,03,30,10.20
2010,06,28,03,31,10.20
2010,06,28,03,32,10.20
2010,06,28,03,33,10.20
2010,06,28,03,34,10.10
2010,06,28,03,35,10.10
2010,06,28,03,36,10.10
2010,06,28,03,37,10.10
2010,06,28,03,38,10.10
2010,06,28,03,39,10.10
2010,06,28,03,40,10.10
2010,06,28,03,41,10.10
2010,06,28,03,42,10.10
2010,06,28,03,43,10.10
2010,06,28,03,44,10.10
2010,06,28,03,45,10.10
2010,06,28,03,46,10.10
2010,06,28,03,47,10.10
2010,06,28,03,48,10.10
2010,06,28,03,49,10.10
2010,06,28,03,50,10.10
2010,06,28,03,51,10.10
2010,06,28,03,52,10.10
2010,06,28,03,53,10.10
2010,06,28,03,54,10.20
2010,06,28,03,55,10.20
2010,06,28,03,56,10.20
2010,06,28,03,57,10.20
2010,06,28,03,58,10.20
2010,06,28,03,59,10.20
2010,06,28,04,00,10.20
2010,06,28,04,01,10.20
2010,06,28,04,02,10.20
2010,06,28,04,03,10.20
2010,06,28,04,04,10.20
2010,06,28,04,05,10.20
2010,06,28,04,06,10.20
2010,06,28,04,07,10.20
2010,06,28,04,08,10.20
2010,06,28,04,09,10.20
2010,06,28,04,10,10.20
2010,06,28,04,11,10.20
2010,06,28,04,12,10.20
2010,06,28,04,13,10.20
2010,06,28,04,14,10.10
2010,06,28,04,15,10.10
2010,06,28,04,16,10.10
2010,06,28,04,17,10.10
2010,06,28,04,18,10.10
2010,06,28,04,19,10.10
2010,06,28,04,20,10.10
2010,06,28,04,21,10.00
2010,06,28,04,22,10.00
2010,06,28,04,23,10.00
2010,06,28,04,24,10.00
2010,06,28,04,25,9.90
2010,06,28,04,26,9.90
2010,06,28,04,27,9.90
2010,06,28,04,28,9.90
2010,06,28,04,29,9.90
2010,06,28,04,30,9.80
2010,06,28,04,31,9.90
2010,06,28,04,32,9.90
2010,06,28,04,33,9.90
2010,06,28,04,34,9.90
2010,06,28,04,35,9.90
2010,06,28,04,36,9.90
2010,06,28,04,37,9.90
2010,06,28,04,38,9.90
2010,06,28,04,39,9.90
2010,06,28,04,40,9.90
2010,06,28,04,41,9.90
2010,06,28,04,42,9.90
2010,06,28,04,43,10.00
2010,06,28,04,44,10.00
2010,06,28,04,45,10.00
2010,06,28,04,46,10.10
2010,06,28,04,47,10.10
2010,06,28,04,48,10.10
2010,06,28,04,49,10.20
2010,06,28,04,50,10.20
2010,06,28,04,51,10.20
2010,06,28,04,52,10.20
2010,06,28,04,53,10.20
2010,06,28,04,54,10.20
2010,06,28,04,55,10.20
2010,06,28,04,56,10.20
2010,06,28,04,57,10.20
2010,06,28,04,58,10.20
2010,06,28,04,59,10.20
2010,06,28,05,00,10.20
2010,06,28,05,01,10.20
2010,06,28,05,02,10.20
2010,06,28,05,03,10.20
2010,06,28,05,04,10.20
2010,06,28,05,05,10.20
2010,06,28,05,06,10.20
2010,06,28,05,07,10.30
2010,06,28,05,08,10.20
2010,06,28,05,09,10.20
2010,06,28,05,10,10.20
2010,06,28,05,11,10.20
2010,06,28,05,12,10.20
2010,06,28,05,13,10.20
2010,06,28,05,14,10.30
2010,06,28,05,15,10.30
2010,06,28,05,16,10.30
2010,06,28,05,17,10.30
2010,06,28,05,18,10.30
2010,06,28,05,19,10.30
2010,06,28,05,20,10.30
2010,06,28,05,21,10.30
2010,06,28,05,22,10.30
2010,06,28,05,23,10.30
2010,06,28,05,24,10.40
2010,06,28,05,25,10.40
2010,06,28,05,26,10.40
2010,06,28,05,27,10.40
2010,06,28,05,28,10.40
2010,06,28,05,29,10.40
2010,06,28,05,30,10.40
2010,06,28,05,31,10.40
2010,06,28,05,32,10.40
2010,06,28,05,33,10.40
2010,06,28,05,34,10.40
2010,06,28,05,35,10.40
2010,06,28,05,36,10.40
2010,06,28,05,37,10.40
2010,06,28,05,38,10.40
2010,06,28,05,39,10.50
2010,06,28,05,40,10.50
2010,06,28,05,41,10.50
2010,06,28,05,42,10.50
2010,06,28,05,43,10.50
2010,06,28,05,44,10.50
2010,06,28,05,45,10.50
2010,06,28,05,46,10.60
2010,06,28,05,47,10.60
2010,06,28,05,48,10.60
2010,06,28,05,49,10.60
2010,06,28,05,50,10.60
2010,06,28,05,51,10.60
2010,06,28,05,52,10.60
2010,06,28,05,53,10.60
2010,06,28,05,54,10.60
2010,06,28,05,55,10.60
2010,06,28,05,56,10.60
2010,06,28,05,57,10.60
2010,06,28,05,58,10.60
2010,06,28,05,59,10.60
2010,06,28,06,00,10.60
2010,06,28,06,01,10.60
2010,06,28,06,02,10.60
2010,06,28,06,03,10.60
2010,06,28,06,04,10.70
2010,06,28,06,05,10.70
2010,06,28,06,06,10.70
2010,06,28,06,07,10.70
2010,06,28,06,08,10.80
2010,06,28,06,09,10.80
2010,06,28,06,10,10.80
2010,06,28,06,11,10.80
2010,06,28,06,12,10.80
2010,06,28,06,13,10.80
2010,06,28,06,14,10.80
2010,06,28,06,15,10.80
2010,06,28,06,16,10.90
2010,06,28,06,17,10.90
2010,06,28,06,18,10.90
2010,06,28,06,19,10.90
2010,06,28,06,20,10.90
2010,06,28,06,21,10.90
2010,06,28,06,22,10.90
2010,06,28,06,23,11.00
2010,06,28,06,24,11.00
2010,06,28,06,25,11.00
2010,06,28,06,26,11.00
2010,06,28,06,27,11.00
2010,06,28,06,28,11.10
2010,06,28,06,29,11.10
2010,06,28,06,30,11.10
2010,06,28,06,31,11.10
2010,06,28,06,32,11.10
2010,06,28,06,33,11.20
2010,06,28,06,34,11.20
2010,06,28,06,35,11.20
2010,06,28,06,36,11.20
2010,06,28,06,37,11.20
2010,06,28,06,38,11.20
2010,06,28,06,39,11.20
2010,06,28,06,40,11.20
2010,06,28,06,41,11.20
2010,06,28,06,42,11.20
2010,06,28,06,43,11.20
2010,06,28,06,44,11.20
2010,06,28,06,45,11.20
2010,06,28,06,46,11.20
2010,06,28,06,47,11.20
2010,06,28,06,48,11.20
2010,06,28,06,49,11.20
2010,06,28,06,50,11.30
2010,06,28,06,51,11.30
2010,06,28,06,52,11.30
2010,06,28,06,53,11.30
2010,06,28,06,54,11.30
2010,06,28,06,55,11.30
2010,06,28,06,56,11.30
2010,06,28,06,57,11.30
2010,06,28,06,58,11.30
2010,06,28,06,59,11.30
2010,06,28,07,00,11.30
2010,06,28,07,01,11.30
2010,06,28,07,02,11.30
2010,06,28,07,03,11.30
2010,06,28,07,04,11.30
2010,06,28,07,05,11.30
2010,06,28,07,06,11.30
2010,06,28,07,07,11.30
2010,06,28,07,08,11.30
2010,06,28,07,09,11.40
2010,06,28,07,10,11.40
2010,06,28,07,11,11.40
2010,06,28,07,12,11.40
2010,06,28,07,13,11.40
2010,06,28,07,14,11.40
2010,06,28,07,15,11.40
2010,06,28,07,16,11.40
2010,06,28,07,17,11.40
2010,06,28,07,18,11.40
2010,06,28,07,19,11.40
2010,06,28,07,20,11.40
2010,06,28,07,21,11.30
2010,06,28,07,22,11.30
2010,06,28,07,23,11.30
2010,06,28,07,24,11.30
2010,06,28,07,25,11.30
2010,06,28,07,26,11.30
2010,06,28,07,27,11.30
2010,06,28,07,28,11.30
2010,06,28,07,29,11.20
2010,06,28,07,30,11.30
2010,06,28,07,31,11.20
2010,06,28,07,32,11.20
2010,06,28,07,33,11.20
2010,06,28,07,34,11.20
2010,06,28,07,35,11.20
2010,06,28,07,36,11.30
2010,06,28,07,37,11.30
2010,06,28,07,38,11.30
2010,06,28,07,39,11.30
2010,06,28,07,40,11.20
2010,06,28,07,41,11.20
2010,06,28,07,42,11.20
2010,06,28,07,43,11.20
2010,06,28,07,44,11.20
2010,06,28,07,45,11.20
2010,06,28,07,46,11.20
2010,06,28,07,47,11.20
2010,06,28,07,48,11.20
2010,06,28,07,49,11.20
2010,06,28,07,50,11.30
2010,06,28,07,51,11.30
2010,06,28,07,52,11.30
2010,06,28,07,53,11.30
2010,06,28,07,54,11.30
2010,06,28,07,55,11.40
2010,06,28,07,56,11.40
2010,06,28,07,57,11.40
2010,06,28,07,58,11.40
2010,06,28,07,59,11.40
2010,06,28,08,00,11.40
2010,06,28,08,01,11.40
2010,06,28,08,02,11.40
2010,06,28,08,03,11.40
2010,06,28,08,04,11.50
2010,06,28,08,05,11.50
2010,06,28,08,06,11.50
2010,06,28,08,07,11.50
2010,06,28,08,08,11.50
2010,06,28,08,09,11.60
2010,06,28,08,10,11.60
2010,06,28,08,11,11.60
2010,06,28,08,12,11.60
2010,06,28,08,13,11.60
2010,06,28,08,14,11.70
2010,06,28,08,15,11.70
2010,06,28,08,16,11.70
2010,06,28,08,17,11.70
2010,06,28,08,18,11.70
2010,06,28,08,19,11.70
2010,06,28,08,20,11.80
2010,06,28,08,21,11.80
2010,06,28,08,22,11.80
2010,06,28,08,23,11.80
2010,06,28,08,24,11.80
2010,06,28,08,25,11.90
2010,06,28,08,26,11.90
2010,06,28,08,27,11.90
2010,06,28,08,28,11.90
2010,06,28,08,29,11.90
2010,06,28,08,30,12.00
2010,06,28,08,31,12.00
2010,06,28,08,32,12.00
2010,06,28,08,33,12.10
2010,06,28,08,34,12.10
2010,06,28,08,35,12.10
2010,06,28,08,36,12.10
2010,06,28,08,37,12.10
2010,06,28,08,38,12.10
2010,06,28,08,39,12.10
2010,06,28,08,40,12.10
2010,06,28,08,41,12.10
2010,06,28,08,42,12.10
2010,06,28,08,43,12.10
2010,06,28,08,44,12.10
2010,06,28,08,45,12.10
2010,06,28,08,46,12.20
2010,06,28,08,47,12.20
2010,06,28,08,48,12.20
2010,06,28,08,49,12.20
2010,06,28,08,50,12.30
2010,06,28,08,51,12.30
2010,06,28,08,52,12.30
2010,06,28,08,53,12.30
2010,06,28,08,54,12.30
2010,06,28,08,55,12.40
2010,06,28,08,56,12.40
2010,06,28,08,57,12.40
2010,06,28,08,58,12.40
2010,06,28,08,59,12.40
2010,06,28,09,00,12.40
2010,06,28,09,01,12.40
2010,06,28,09,02,12.30
2010,06,28,09,03,12.30
2010,06,28,09,04,12.30
2010,06,28,09,05,12.20
2010,06,28,09,06,12.20
2010,06,28,09,07,12.20
2010,06,28,09,08,12.20
2010,06,28,09,09,12.20
2010,06,28,09,10,12.30
2010,06,28,09,11,12.30
2010,06,28,09,12,12.30
2010,06,28,09,13,12.20
2010,06,28,09,14,12.20
2010,06,28,09,15,12.20
2010,06,28,09,16,12.10
2010,06,28,09,17,12.10
2010,06,28,09,18,12.10
2010,06,28,09,19,12.10
2010,06,28,09,20,12.10
2010,06,28,09,21,12.10
2010,06,28,09,22,12.10
2010,06,28,09,23,12.10
2010,06,28,09,24,12.10
2010,06,28,09,25,12.10
2010,06,28,09,26,12.10
2010,06,28,09,27,12.10
2010,06,28,09,28,12.20
2010,06,28,09,29,12.20
2010,06,28,09,30,12.30
2010,06,28,09,31,12.30
2010,06,28,09,32,12.40
2010,06,28,09,33,12.50
2010,06,28,09,34,12.50
2010,06,28,09,35,12.50
2010,06,28,09,36,12.60
2010,06,28,09,37,12.60
2010,06,28,09,38,12.60
2010,06,28,09,39,12.60
2010,06,28,09,40,12.70
2010,06,28,09,41,12.70
2010,06,28,09,42,12.70
2010,06,28,09,43,12.70
2010,06,28,09,44,12.70
2010,06,28,09,45,12.70
2010,06,28,09,46,12.70
2010,06,28,09,47,12.70
2010,06,28,09,48,12.70
2010,06,28,09,49,12.70
2010,06,28,09,50,12.70
2010,06,28,09,51,12.70
2010,06,28,09,52,12.80
2010,06,28,09,53,12.80
2010,06,28,09,54,12.80
2010,06,28,09,55,12.80
2010,06,28,09,56,12.90
2010,06,28,09,57,12.90
2010,06,28,09,58,12.90
2010,06,28,09,59,13.00
2010,06,28,10,00,13.00
2010,06,28,10,01,13.00
2010,06,28,10,02,13.00
2010,06,28,10,03,12.90
2010,06,28,10,04,12.90
2010,06,28,10,05,12.90
2010,06,28,10,06,12.90
2010,06,28,10,07,12.90
2010,06,28,10,08,13.00
2010,06,28,10,09,13.00
2010,06,28,10,10,13.00
2010,06,28,10,11,13.10
2010,06,28,10,12,13.10
2010,06,28,10,13,13.10
2010,06,28,10,14,13.10
2010,06,28,10,15,13.20
2010,06,28,10,16,13.20
2010,06,28,10,17,13.20
2010,06,28,10,18,13.20
2010,06,28,10,19,13.20
2010,06,28,10,20,13.20
2010,06,28,10,21,13.20
2010,06,28,10,22,13.20
2010,06,28,10,23,13.30
2010,06,28,10,24,13.30
2010,06,28,10,25,13.30
2010,06,28,10,26,13.20
2010,06,28,10,27,13.10
2010,06,28,10,28,13.00
2010,06,28,10,29,12.90
2010,06,28,10,30,12.80
2010,06,28,10,31,12.80
2010,06,28,10,32,12.80
2010,06,28,10,33,12.80
2010,06,28,10,34,12.80
2010,06,28,10,35,12.70
2010,06,28,10,36,12.70
2010,06,28,10,37,12.60
2010,06,28,10,38,12.60
2010,06,28,10,39,12.50
2010,06,28,10,40,12.60
2010,06,28,10,41,12.60
2010,06,28,10,42,12.60
2010,06,28,10,43,12.60
2010,06,28,10,44,12.70
2010,06,28,10,45,12.70
2010,06,28,10,46,12.80
2010,06,28,10,47,12.90
2010,06,28,10,48,12.90
2010,06,28,10,49,13.00
2010,06,28,10,50,13.00
2010,06,28,10,51,13.00
2010,06,28,10,52,13.10
2010,06,28,10,53,13.20
2010,06,28,10,54,13.30
2010,06,28,10,55,13.40
2010,06,28,10,56,13.50
2010,06,28,10,57,13.50
2010,06,28,10,58,13.50
2010,06,28,10,59,13.40
2010,06,28,11,00,13.40
2010,06,28,11,01,13.40
2010,06,28,11,02,13.40
2010,06,28,11,03,13.40
2010,06,28,11,04,13.50
2010,06,28,11,05,13.40
2010,06,28,11,06,13.40
2010,06,28,11,07,13.40
2010,06,28,11,08,13.30
2010,06,28,11,09,13.30
2010,06,28,11,10,13.40
2010,06,28,11,11,13.40
2010,06,28,11,12,13.40
2010,06,28,11,13,13.40
2010,06,28,11,14,13.40
2010,06,28,11,15,13.50
2010,06,28,11,16,13.60
2010,06,28,11,17,13.60
2010,06,28,11,18,13.70
2010,06,28,11,19,13.60
2010,06,28,11,20,13.60
2010,06,28,11,21,13.60
2010,06,28,11,22,13.50
2010,06,28,11,23,13.40
2010,06,28,11,24,13.30
2010,06,28,11,25,13.30
2010,06,28,11,26,13.30
2010,06,28,11,27,13.40
2010,06,28,11,28,13.50
2010,06,28,11,29,13.50
2010,06,28,11,30,13.40
2010,06,28,11,31,13.40
2010,06,28,11,32,13.50
2010,06,28,11,33,13.40
2010,06,28,11,34,13.30
2010,06,28,11,35,13.20
2010,06,28,11,36,13.10
2010,06,28,11,37,13.10
2010,06,28,11,38,13.00
2010,06,28,11,39,13.00
2010,06,28,11,40,12.90
2010,06,28,11,41,12.80
2010,06,28,11,42,12.80
2010,06,28,11,43,12.90
2010,06,28,11,44,12.90
2010,06,28,11,45,12.90
2010,06,28,11,46,12.90
2010,06,28,11,47,13.00
2010,06,28,11,48,13.10
2010,06,28,11,49,13.20
2010,06,28,11,50,13.30
2010,06,28,11,51,13.30
2010,06,28,11,52,13.30
2010,06,28,11,53,13.30
2010,06,28,11,54,13.30
2010,06,28,11,55,13.30
2010,06,28,11,56,13.40
2010,06,28,11,57,13.40
2010,06,28,11,58,13.30
2010,06,28,11,59,13.20
2010,06,28,12,00,13.20
2010,06,28,12,01,13.20
2010,06,28,12,02,13.20
2010,06,28,12,03,13.30
2010,06,28,12,04,13.30
2010,06,28,12,05,13.40
2010,06,28,12,06,13.40
2010,06,28,12,07,13.40
2010,06,28,12,08,13.40
2010,06,28,12,09,13.50
2010,06,28,12,10,13.60
2010,06,28,12,11,13.60
2010,06,28,12,12,13.60
2010,06,28,12,13,13.70
2010,06,28,12,14,13.70
2010,06,28,12,15,13.70
2010,06,28,12,16,13.60
2010,06,28,12,17,13.60
2010,06,28,12,18,13.60
2010,06,28,12,19,13.60
2010,06,28,12,20,13.70
2010,06,28,12,21,13.80
2010,06,28,12,22,13.80
2010,06,28,12,23,13.90
2010,06,28,12,24,13.90
2010,06,28,12,25,13.80
2010,06,28,12,26,13.80
2010,06,28,12,27,13.80
2010,06,28,12,28,13.80
2010,06,28,12,29,13.70
2010,06,28,12,30,13.70
2010,06,28,12,31,13.70
2010,06,28,12,32,13.70
2010,06,28,12,33,13.70
2010,06,28,12,34,13.70
2010,06,28,12,35,13.70
2010,06,28,12,36,13.70
2010,06,28,12,37,13.80
2010,06,28,12,38,13.80
2010,06,28,12,39,13.90
2010,06,28,12,40,14.10
2010,06,28,12,41,14.30
2010,06,28,12,42,14.30
2010,06,28,12,43,14.30
2010,06,28,12,44,14.30
2010,06,28,12,45,14.30
2010,06,28,12,46,14.30
2010,06,28,12,47,14.30
2010,06,28,12,48,14.40
2010,06,28,12,49,14.60
2010,06,28,12,50,14.70
2010,06,28,12,51,14.70
2010,06,28,12,52,14.70
2010,06,28,12,53,14.60
2010,06,28,12,54,14.60
2010,06,28,12,55,14.60
2010,06,28,12,56,14.60
2010,06,28,12,57,14.60
2010,06,28,12,58,14.60
2010,06,28,12,59,14.60
2010,06,28,13,00,14.60
2010,06,28,13,01,14.60
2010,06,28,13,02,14.50
2010,06,28,13,03,14.40
2010,06,28,13,04,14.40
2010,06,28,13,05,14.40
2010,06,28,13,06,14.40
2010,06,28,13,07,14.60
2010,06,28,13,08,14.60
2010,06,28,13,09,14.70
2010,06,28,13,10,14.70
2010,06,28,13,11,14.80
2010,06,28,13,12,14.80
2010,06,28,13,13,14.90
2010,06,28,13,14,15.00
2010,06,28,13,15,15.00
2010,06,28,13,16,15.10
2010,06,28,13,17,15.10
2010,06,28,13,18,15.00
2010,06,28,13,19,15.00
2010,06,28,13,20,15.00
2010,06,28,13,21,15.00
2010,06,28,13,22,15.00
2010,06,28,13,23,15.00
2010,06,28,13,24,15.00
2010,06,28,13,25,15.00
2010,06,28,13,26,15.00
2010,06,28,13,27,15.00
2010,06,28,13,28,15.10
2010,06,28,13,29,15.20
2010,06,28,13,30,15.20
2010,06,28,13,31,15.20
2010,06,28,13,32,15.20
2010,06,28,13,33,15.30
2010,06,28,13,34,15.40
2010,06,28,13,35,15.40
2010,06,28,13,36,15.40
2010,06,28,13,37,15.30
2010,06,28,13,38,15.10
2010,06,28,13,39,15.00
2010,06,28,13,40,14.90
2010,06,28,13,41,14.80
2010,06,28,13,42,14.70
2010,06,28,13,43,14.60
2010,06,28,13,44,14.50
2010,06,28,13,45,14.30
2010,06,28,13,46,14.20
2010,06,28,13,47,14.10
2010,06,28,13,48,14.10
2010,06,28,13,49,14.10
2010,06,28,13,50,14.10
2010,06,28,13,51,14.20
2010,06,28,13,52,14.20
2010,06,28,13,53,14.20
2010,06,28,13,54,14.10
2010,06,28,13,55,14.00
2010,06,28,13,56,13.90
2010,06,28,13,57,13.90
2010,06,28,13,58,13.90
2010,06,28,13,59,13.90
2010,06,28,14,00,13.90
2010,06,28,14,01,13.90
2010,06,28,14,02,13.90
2010,06,28,14,03,13.80
2010,06,28,14,04,13.80
2010,06,28,14,05,13.80
2010,06,28,14,06,13.80
2010,06,28,14,07,13.80
2010,06,28,14,08,13.80
2010,06,28,14,09,13.80
2010,06,28,14,10,13.80
2010,06,28,14,11,13.90
2010,06,28,14,12,14.00
2010,06,28,14,13,14.10
2010,06,28,14,14,14.10
2010,06,28,14,15,14.10
2010,06,28,14,16,14.20
2010,06,28,14,17,14.20
2010,06,28,14,18,14.30
2010,06,28,14,19,14.30
2010,06,28,14,20,14.40
2010,06,28,14,21,14.50
2010,06,28,14,22,14.60
2010,06,28,14,23,14.80
2010,06,28,14,24,14.90
2010,06,28,14,25,15.00
2010,06,28,14,26,15.00
2010,06,28,14,27,15.00
2010,06,28,14,28,15.00
2010,06,28,14,29,15.00
2010,06,28,14,30,15.00
2010,06,28,14,31,15.00
2010,06,28,14,32,15.00
2010,06,28,14,33,15.00
2010,06,28,14,34,15.00
2010,06,28,14,35,15.00
2010,06,28,14,36,15.10
2010,06,28,14,37,15.20
2010,06,28,14,38,15.30
2010,06,28,14,39,15.40
2010,06,28,14,40,15.40
2010,06,28,14,41,15.30
2010,06,28,14,42,15.20
2010,06,28,14,43,15.00
2010,06,28,14,44,15.00
2010,06,28,14,45,15.00
2010,06,28,14,46,14.90
2010,06,28,14,47,14.80
2010,06,28,14,48,14.70
2010,06,28,14,49,14.60
2010,06,28,14,50,14.50
2010,06,28,14,51,14.50
2010,06,28,14,52,14.50
2010,06,28,14,53,14.50
2010,06,28,14,54,14.60
2010,06,28,14,55,14.60
2010,06,28,14,56,14.60
2010,06,28,14,57,14.60
2010,06,28,14,58,14.60
2010,06,28,14,59,14.50
2010,06,28,15,00,14.50
2010,06,28,15,01,14.50
2010,06,28,15,02,14.50
2010,06,28,15,03,14.40
2010,06,28,15,04,14.40
2010,06,28,15,05,14.40
2010,06,28,15,06,14.40
2010,06,28,15,07,14.50
2010,06,28,15,08,14.60
2010,06,28,15,09,14.60
2010,06,28,15,10,14.70
2010,06,28,15,11,14.70
2010,06,28,15,12,14.80
2010,06,28,15,13,14.90
2010,06,28,15,14,15.00
2010,06,28,15,15,15.00
2010,06,28,15,16,15.00
2010,06,28,15,17,15.00
2010,06,28,15,18,15.00
2010,06,28,15,19,15.00
2010,06,28,15,20,15.00
2010,06,28,15,21,15.00
2010,06,28,15,22,15.00
2010,06,28,15,23,15.00
2010,06,28,15,24,15.10
2010,06,28,15,25,15.20
2010,06,28,15,26,15.40
2010,06,28,15,27,15.50
2010,06,28,15,28,15.60
2010,06,28,15,29,15.70
2010,06,28,15,30,15.80
2010,06,28,15,31,16.00
2010,06,28,15,32,16.10
2010,06,28,15,33,16.20
2010,06,28,15,34,16.20
2010,06,28,15,35,16.20
2010,06,28,15,36,16.20
2010,06,28,15,37,16.20
2010,06,28,15,38,16.20
2010,06,28,15,39,16.20
2010,06,28,15,40,16.20
2010,06,28,15,41,16.40
2010,06,28,15,42,16.40
2010,06,28,15,43,16.40
2010,06,28,15,44,16.50
2010,06,28,15,45,16.40
2010,06,28,15,46,16.30
2010,06,28,15,47,16.30
2010,06,28,15,48,16.20
2010,06,28,15,49,16.30
2010,06,28,15,50,16.20
2010,06,28,15,51,16.20
2010,06,28,15,52,16.20
2010,06,28,15,53,16.30
2010,06,28,15,54,16.30
2010,06,28,15,55,16.40
2010,06,28,15,56,16.40
2010,06,28,15,57,16.50
2010,06,28,15,58,16.60
2010,06,28,15,59,16.70
2010,06,28,16,00,16.80
2010,06,28,16,01,16.90
2010,06,28,16,02,17.00
2010,06,28,16,03,17.00
2010,06,28,16,04,17.00
2010,06,28,16,05,17.00
2010,06,28,16,06,17.10
2010,06,28,16,07,17.20
2010,06,28,16,08,17.30
2010,06,28,16,09,17.40
2010,06,28,16,10,17.50
2010,06,28,16,11,17.50
2010,06,28,16,12,17.40
2010,06,28,16,13,17.30
2010,06,28,16,14,17.30
2010,06,28,16,15,17.30
2010,06,28,16,16,17.40
2010,06,28,16,17,17.40
2010,06,28,16,18,17.40
2010,06,28,16,19,17.30
2010,06,28,16,20,17.30
2010,06,28,16,21,17.20
2010,06,28,16,22,17.20
2010,06,28,16,23,17.20
2010,06,28,16,24,17.30
2010,06,28,16,25,17.20
2010,06,28,16,26,17.20
2010,06,28,16,27,17.20
2010,06,28,16,28,17.20
2010,06,28,16,29,17.20
2010,06,28,16,30,17.20
2010,06,28,16,31,17.10
2010,06,28,16,32,17.10
2010,06,28,16,33,17.10
2010,06,28,16,34,17.10
2010,06,28,16,35,17.20
2010,06,28,16,36,17.20
2010,06,28,16,37,17.20
2010,06,28,16,38,17.20
2010,06,28,16,39,17.20
2010,06,28,16,40,17.20
2010,06,28,16,41,17.20
2010,06,28,16,42,17.20
2010,06,28,16,43,17.30
2010,06,28,16,44,17.40
2010,06,28,16,45,17.50
2010,06,28,16,46,17.60
2010,06,28,16,47,17.60
2010,06,28,16,48,17.70
2010,06,28,16,49,17.70
2010,06,28,16,50,17.60
2010,06,28,16,51,17.60
2010,06,28,16,52,17.70
2010,06,28,16,53,17.70
2010,06,28,16,54,17.70
2010,06,28,16,55,17.80
2010,06,28,16,56,17.80
2010,06,28,16,57,17.70
2010,06,28,16,58,17.70
2010,06,28,16,59,17.70
2010,06,28,17,00,17.70
2010,06,28,17,01,17.70
2010,06,28,17,02,17.80
2010,06,28,17,03,17.90
2010,06,28,17,04,17.90
2010,06,28,17,05,17.90
2010,06,28,17,06,17.80
2010,06,28,17,07,17.80
2010,06,28,17,08,17.70
2010,06,28,17,09,17.70
2010,06,28,17,10,17.60
2010,06,28,17,11,17.60
2010,06,28,17,12,17.60
2010,06,28,17,13,17.50
2010,06,28,17,14,17.40
2010,06,28,17,15,17.40
2010,06,28,17,16,17.40
2010,06,28,17,17,17.40
2010,06,28,17,18,17.30
2010,06,28,17,19,17.20
2010,06,28,17,20,17.10
2010,06,28,17,21,17.10
2010,06,28,17,22,17.00
2010,06,28,17,23,17.00